This demonstration page uses our WeatherBlox Daily Observations layout. Learn more.

Left ArrowRight Arrow

Hourly Observations for January 22, 2018

Temp ( °F °C ) Dew Point ( °F °C ) Humidity (%) Winds ( mph kmh ) Pressure ( in mb ) Visibility ( mi km ) Precip ( " mm )
12:53 am 00:53 Clear 36 2.2 9 -12.8 32 32 W 8 13 30.01 1016 10 16 0.00 0.00
1:53 am 01:53 Clear 33 0.6 9 -12.8 36 36 Calm 30.03 1017 10 16 0.00 0.00
2:53 am 02:53 Clear 32 0 8 -13.3 36 36 NNW 7 11 30.03 1017 10 16 0.00 0.00
3:53 am 03:53 Clear 27 -2.8 7 -13.9 43 43 NNW 5 7 30.04 1017 10 16 0.00 0.00
4:53 am 04:53 Clear 24 -4.4 7 -13.9 48 48 SW 8 13 30.08 1019 10 16 0.00 0.00
5:53 am 05:53 Clear 23 -5 7 -13.9 50 50 WNW 3 6 30.09 1019 10 16 0.00 0.00
6:53 am 06:53 Clear 22 -5.6 7 -13.9 52 52 Calm 30.13 1020 10 16 0.00 0.00
7:53 am 07:53 Sunny 24 -4.4 7 -13.9 48 48 NW 3 6 30.15 1021 10 16 0.00 0.00
8:53 am 08:53 Sunny 31 -0.6 10 -12.2 42 42 Calm 30.16 1021 10 16 0.00 0.00
9:53 am 09:53 Sunny 42 5.6 11 -11.7 28 28 NW 6 9 30.17 1022 10 16 0.00 0.00
10:53 am 10:53 Sunny 49 9.4 10 -12.2 21 21 undefined N/A 30.17 1022 10 16 0.00 0.00
11:53 am 11:53 Sunny 54 12.2 4 -15.6 13 13 NW 16 26 30.16 1021 10 16 0.00 0.00
12:53 pm 12:53 Sunny 56 13.3 3 -16.1 11 11 NNW 18 30 30.13 1020 10 16 0.00 0.00
1:53 pm 13:53 Sunny 55 12.8 3 -16.1 12 12 NNW 10 17 30.11 1020 10 16 0.00 0.00
2:53 pm 14:53 Sunny 56 13.3 3 -16.1 11 11 NW 13 20 30.10 1019 10 16 0.00 0.00
3:53 pm 15:53 Sunny 57 13.9 3 -16.1 11 11 NNW 9 15 30.10 1019 10 16 0.00 0.00
4:53 pm 16:53 Sunny 56 13.3 3 -16.1 11 11 NNW 8 13 30.13 1020 10 16 0.00 0.00
5:53 pm 17:53 Sunny 53 11.7 4 -15.6 13 13 NW 3 6 30.15 1021 10 16 0.00 0.00
6:53 pm 18:53 Clear 50 10 3 -16.1 14 14 Calm 30.17 1022 10 16 0.00 0.00
7:53 pm 19:53 Clear 44 6.7 4 -15.6 19 19 Calm 30.18 1022 10 16 0.00 0.00
8:53 pm 20:53 Clear 37 2.8 3 -16.1 24 24 NE 3 6 30.19 1022 10 16 0.00 0.00
9:53 pm 21:53 Clear 33 0.6 3 -16.1 28 28 NNE 5 7 30.18 1022 10 16 0.00 0.00
10:53 pm 22:53 Clear 31 -0.6 4 -15.6 31 31 NNW 6 9 30.19 1022 10 16 0.00 0.00
11:53 pm 23:53 Clear 27 -2.8 3 -16.1 35 35 N 8 13 30.18 1022 10 16 0.00 0.00

Powered by AerisWeather